DW6557 Weather Reports


time (UTC)temp
F
wind
direction
speed
knots
gust
knots
rain 1hr
in
rain 24hr
in
rain mn
in
humidity
%
barometer
mb
20260504011521 50 84 0.0 0.0 0.00 0.02 0.00 79 1019.3
20260504010018 51 84 0.0 0.0 0.00 0.02 0.00 79 1019.1
20260504004516 52 84 0.0 0.0 0.00 0.06 0.00 78 1019.0
20260504003015 52 84 0.0 0.0 0.00 0.06 0.00 78 1018.9
20260504001522 53 84 0.0 0.9 0.00 0.06 0.00 78 1018.7
20260504000011 53 84 0.0 2.6 0.00 0.06 0.00 77 1018.6
20260503234511 53 102 0.0 5.2 0.00 0.10 0.00 76 1018.5
20260503233017 54 90 0.0 3.5 0.00 0.10 0.00 75 1018.4
20260503231509 54 111 0.0 3.5 0.00 0.10 0.00 73 1018.2
20260503230031 55 102 0.0 6.1 0.00 0.10 0.00 72 1018.1
20260503224508 55 96 0.0 6.1 0.00 0.13 0.00 71 1018.0
20260503223008 55 90 0.9 6.1 0.00 0.13 0.00 69 1018.1
20260503221508 56 121 0.9 6.1 0.00 0.13 0.00 68 1018.0
20260503220008 56 105 0.0 4.3 0.00 0.13 0.00 67 1018.0
20260503214515 56 115 0.9 6.1 0.00 0.17 0.00 67 1018.1
20260503213006 57 120 0.0 7.0 0.00 0.17 0.00 65 1018.3
20260503211505 56 169 0.9 8.7 0.00 0.17 0.00 65 1018.3
20260503210005 56 46 0.9 5.2 0.00 0.17 0.00 66 1018.2
20260503204503 56 97 0.9 6.1 0.00 0.20 0.00 65 1018.2
20260503203009 57 89 1.7 7.8 0.00 0.20 0.00 65 1018.1
20260503201501 57 76 0.9 6.1 0.00 0.20 0.00 65 1018.0
20260503200001 57 50 0.9 10.4 0.00 0.20 0.00 65 1018.0
20260503194610 57 103 1.7 10.4 0.00 0.22 0.00 65 1018.1
20260503193118 58 68 2.6 7.8 0.00 0.22 0.00 64 1018.2
20260503191618 58 92 1.7 9.6 0.00 0.22 0.00 63 1018.5
20260503184607 59 345 3.5 9.6 0.00 0.23 0.00 56 1018.8
20260503183056 61 338 0.9 5.2 0.00 0.23 0.00 57 1018.8
20260503181555 60 39 0.9 8.7 0.00 0.23 0.00 57 1018.8
20260503180059 60 307 0.9 7.8 0.00 0.23 0.00 57 1018.8
20260503174554 60 70 0.9 10.4 0.00 0.25 0.00 57 1018.9
20260503173051 59 19 1.7 10.4 0.00 0.25 0.00 57 1019.1
20260503171550 59 319 1.7 10.4 0.00 0.25 0.00 58 1019.0
20260503170103 60 355 0.9 7.8 0.00 0.25 0.00 56 1019.0
20260503100106 54 342 1.7 9.6 0.00 0.42 0.00 72 1015.4
20260503081543 54 346 0.9 10.4 0.00 0.44 0.00 73 1014.2
20260503071533 55 321 2.6 11.3 0.00 0.44 0.00 72 1013.5
20260503054700 54 33 2.6 13.9 0.00 0.45 0.00 72 1012.4
20260503053057 54 360 2.6 11.3 0.00 0.45 0.00 71 1012.3
20260503051555 53 328 2.6 12.2 0.00 0.45 0.00 70 1012.7
20260503050052 54 346 2.6 12.2 0.00 0.45 0.00 70 1012.8
20260503044551 54 32 4.3 12.2 0.00 0.45 0.00 73 1012.6
20260503043054 54 345 3.5 15.6 0.00 0.45 0.00 74 1012.6
20260503041544 54 341 3.5 13.0 0.00 0.45 0.00 76 1012.5
20260503040040 54 63 1.7 14.8 0.00 0.45 0.00 79 1012.4
20260503034545 54 15 2.6 12.2 0.00 0.45 0.45 81 1012.2
20260503033139 53 28 3.5 13.9 0.01 0.45 0.45 81 1012.2
20260503031538 53 72 3.5 15.6 0.01 0.45 0.45 81 1012.0
20260503030037 52 78 2.6 16.5 0.01 0.45 0.45 83 1011.9
20260503024538 52 26 5.2 13.9 0.01 0.45 0.45 85 1011.8
20260503023037 52 344 4.3 13.9 0.00 0.44 0.44 86 1012.0
20260503021532 52 119 1.7 15.6 0.01 0.44 0.44 88 1012.0
20260503020032 51 5 3.5 14.8 0.01 0.44 0.44 89 1012.4
20260503014529 51 80 3.5 11.3 0.02 0.44 0.44 89 1012.3
20260503013037 50 9 3.5 11.3 0.03 0.44 0.44 90 1012.4